Simultaneous Nadir Overpasses (SNOs) Predictions

Prediction of SNOs between GOES-17 and METOP-C Satellite Orbit:

Table of predicted SNOs for the next 14.0 days since TLE Epoch: 6/14/2024
Index Date Time (GOES-17) GOES-17 Lat,Lon METOP-C Lat,Lon Distance(km) Time Diff (sec)
1 06/15/2024 16:43:54 -0.02,-104.71 0.84,-108.65 447.73 80
2 06/16/2024 16:25:55 -0.02,-104.72 -0.27,-103.65 121.30 80
3 06/18/2024 04:44:57 0.00,-104.70 -0.78,-108.25 404.05 80
4 06/19/2024 04:21:39 -0.01,-104.70 0.32,-103.26 164.98 80
5 06/20/2024 16:40:31 0.01,-104.71 0.70,-107.81 353.49 80
6 06/21/2024 16:22:33 0.00,-104.71 -0.41,-102.82 214.92 80
7 06/23/2024 04:41:35 0.01,-104.69 -0.62,-107.42 311.78 80
8 06/24/2024 04:18:17 0.02,-104.68 0.49,-102.43 256.40 80
9 06/25/2024 16:37:10 -0.03,-104.69 0.46,-107.00 262.60 80
10 06/26/2024 16:19:12 -0.04,-104.69 -0.66,-102.01 305.94 80
11 06/28/2024 04:38:13 0.04,-104.67 -0.42,-106.59 220.08 80
